Time,TemperatureF,DewpointF,PressureIn,WindDirection,WindDirectionDegrees,WindSpeedMPH,WindSpeedGustMPH,Humidity,HourlyPrecipIn,Conditions,Clouds,dailyrainin,SoftwareType,DateUTC
2013-09-02 00:14:00,71.0,69.0,-100.00,SW,215,0.0,0.0,94,0.00,,,0.06,,2013-09-02 04:14:00,
2013-09-02 00:44:00,70.0,68.0,-100.00,SW,214,0.0,0.0,95,0.00,,,0.04,,2013-09-02 04:44:00,
2013-09-02 00:54:00,69.0,67.0,-100.00,SW,214,0.0,0.0,94,0.00,,,0.04,,2013-09-02 04:54:00,
2013-09-02 01:13:00,69.0,68.0,-100.00,SW,215,0.0,0.0,95,0.00,,,0.04,,2013-09-02 05:13:00,
2013-09-02 01:23:00,69.0,68.0,-100.00,SW,215,0.0,0.0,95,0.00,,,0.04,,2013-09-02 05:23:00,
2013-09-02 01:44:00,69.0,68.0,-100.00,SW,215,0.0,0.0,95,0.00,,,0.01,,2013-09-02 05:44:00,
2013-09-02 01:52:00,69.0,68.0,-100.00,SW,215,0.0,0.0,95,0.00,,,0.01,,2013-09-02 05:52:00,
2013-09-02 02:12:00,69.0,68.0,-100.00,WSW,257,0.0,0.0,96,0.00,,,0.01,,2013-09-02 06:12:00,
2013-09-02 02:22:00,70.0,69.0,-100.00,West,268,0.0,0.0,96,0.00,,,0.01,,2013-09-02 06:22:00,
2013-09-02 02:43:00,70.0,69.0,-100.00,WNW,288,0.0,0.0,96,0.00,,,0.00,,2013-09-02 06:43:00,
2013-09-02 02:52:00,70.0,69.0,-100.00,West,273,0.0,0.0,96,0.00,,,0.00,,2013-09-02 06:52:00,
2013-09-02 03:11:00,70.0,68.0,-100.00,WSW,238,0.0,1.0,95,0.00,,,0.00,,2013-09-02 07:11:00,
2013-09-02 03:22:00,70.0,68.0,-100.00,WSW,238,0.0,0.0,95,0.00,,,0.00,,2013-09-02 07:22:00,
2013-09-02 03:42:00,69.0,68.0,-100.00,WSW,237,0.0,0.0,95,0.00,,,0.00,,2013-09-02 07:42:00,
2013-09-02 03:52:00,69.0,68.0,-100.00,WSW,238,0.0,0.0,95,0.00,,,0.00,,2013-09-02 07:52:00,
2013-09-02 04:11:00,69.0,68.0,-100.00,WSW,237,0.0,0.0,96,0.00,,,0.00,,2013-09-02 08:11:00,
2013-09-02 04:22:00,69.0,68.0,-100.00,WSW,238,0.0,0.0,96,0.00,,,0.00,,2013-09-02 08:22:00,
2013-09-02 04:42:00,69.0,68.0,-100.00,WSW,237,0.0,0.0,96,0.00,,,0.00,,2013-09-02 08:42:00,
2013-09-02 04:52:00,70.0,69.0,-100.00,West,278,2.0,5.0,96,0.00,,,0.00,,2013-09-02 08:52:00,
2013-09-02 05:12:00,70.0,69.0,-100.00,WSW,258,3.0,9.0,96,0.00,,,0.00,,2013-09-02 09:12:00,
2013-09-02 05:22:00,70.0,69.0,-100.00,WNW,295,3.0,9.0,96,0.00,,,0.00,,2013-09-02 09:22:00,
2013-09-02 05:43:00,70.0,68.0,-100.00,WNW,291,0.0,6.0,95,0.00,,,0.00,,2013-09-02 09:43:00,
2013-09-02 05:53:00,70.0,68.0,-100.00,West,261,1.0,5.0,95,0.00,,,0.00,,2013-09-02 09:53:00,
2013-09-02 06:13:00,70.0,68.0,-100.00,WNW,299,2.0,5.0,95,0.00,,,0.00,,2013-09-02 10:13:00,
2013-09-02 06:23:00,70.0,68.0,-100.00,West,266,0.0,2.0,95,0.00,,,0.00,,2013-09-02 10:23:00,
2013-09-02 06:42:00,70.0,68.0,-100.00,West,266,0.0,0.0,95,0.00,,,0.00,,2013-09-02 10:42:00,
2013-09-02 06:53:00,69.0,68.0,-100.00,West,266,0.0,0.0,95,0.00,,,0.00,,2013-09-02 10:53:00,
2013-09-02 07:12:00,69.0,68.0,-100.00,West,266,0.0,0.0,95,0.00,,,0.00,,2013-09-02 11:12:00,
2013-09-02 07:22:00,69.0,68.0,-100.00,West,264,0.0,0.0,95,0.00,,,0.00,,2013-09-02 11:22:00,
2013-09-02 07:42:00,69.0,68.0,-100.00,West,260,0.0,0.0,95,0.01,,,0.01,,2013-09-02 11:42:00,
2013-09-02 07:52:00,69.0,68.0,-100.00,West,260,0.0,0.0,95,0.01,,,0.01,,2013-09-02 11:52:00,
2013-09-02 08:12:00,69.0,68.0,-100.00,SW,230,0.0,0.0,95,0.01,,,0.01,,2013-09-02 12:12:00,
2013-09-02 08:21:00,70.0,68.0,-100.00,WSW,252,0.0,0.0,95,0.01,,,0.01,,2013-09-02 12:21:00,
2013-09-02 08:43:00,70.0,68.0,-100.00,West,270,2.0,6.0,95,0.00,,,0.01,,2013-09-02 12:43:00,
2013-09-02 08:52:00,70.0,68.0,-100.00,WSW,243,3.0,6.0,95,0.00,,,0.01,,2013-09-02 12:52:00,
2013-09-02 09:11:00,71.0,69.0,-100.00,West,269,5.0,9.0,94,0.00,,,0.01,,2013-09-02 13:11:00,
2013-09-02 09:22:00,71.0,69.0,-100.00,West,281,4.0,6.0,93,0.00,,,0.01,,2013-09-02 13:22:00,
2013-09-02 09:42:00,71.0,69.0,-100.00,West,261,4.0,9.0,93,0.00,,,0.01,,2013-09-02 13:42:00,
2013-09-02 09:52:00,71.0,69.0,-100.00,NW,320,3.0,7.0,93,0.00,,,0.01,,2013-09-02 13:52:00,
2013-09-02 10:11:00,71.0,69.0,-100.00,West,274,5.0,8.0,93,0.00,,,0.01,,2013-09-02 14:11:00,
2013-09-02 10:22:00,71.0,69.0,-100.00,West,262,3.0,10.0,92,0.00,,,0.01,,2013-09-02 14:22:00,
2013-09-02 10:43:00,72.0,70.0,-100.00,West,260,5.0,8.0,92,0.00,,,0.01,,2013-09-02 14:43:00,
2013-09-02 10:52:00,72.0,70.0,-100.00,WNW,295,4.0,8.0,92,0.00,,,0.01,,2013-09-02 14:52:00,
2013-09-02 11:12:00,73.0,70.0,-100.00,WSW,253,3.0,7.0,91,0.00,,,0.01,,2013-09-02 15:12:00,
2013-09-02 11:23:00,74.0,70.0,-100.00,SW,226,4.0,6.0,88,0.00,,,0.01,,2013-09-02 15:23:00,
2013-09-02 11:55:00,77.0,72.0,-100.00,NW,305,4.0,7.0,84,0.00,,,0.01,,2013-09-02 15:55:00,
2013-09-02 12:14:00,78.0,72.0,-100.00,WNW,292,3.0,8.0,81,0.00,,,0.01,,2013-09-02 16:14:00,
2013-09-02 12:24:00,79.0,72.0,-100.00,NW,305,4.0,9.0,79,0.00,,,0.01,,2013-09-02 16:24:00,
2013-09-02 12:42:00,80.0,72.0,-100.00,NW,312,4.0,9.0,77,0.00,,,0.01,,2013-09-02 16:42:00,
2013-09-02 12:53:00,81.0,73.0,-100.00,SW,227,5.0,11.0,76,0.00,,,0.01,,2013-09-02 16:53:00,
2013-09-02 13:13:00,82.0,72.0,-100.00,WSW,249,7.0,13.0,71,0.00,,,0.01,,2013-09-02 17:13:00,
2013-09-02 13:23:00,82.0,70.0,-100.00,NW,320,7.0,11.0,68,0.00,,,0.01,,2013-09-02 17:23:00,
2013-09-02 13:45:00,82.0,70.0,-100.00,NW,310,4.0,9.0,67,0.00,,,0.01,,2013-09-02 17:45:00,
2013-09-02 13:52:00,82.0,70.0,-100.00,West,278,4.0,11.0,68,0.00,,,0.01,,2013-09-02 17:52:00,
2013-09-02 14:13:00,82.0,72.0,-100.00,WNW,288,5.0,11.0,71,0.00,,,0.01,,2013-09-02 18:13:00,
2013-09-02 14:22:00,80.0,71.0,-100.00,NW,309,5.0,9.0,73,0.00,,,0.01,,2013-09-02 18:22:00,
2013-09-02 14:42:00,77.0,69.0,-100.00,WSW,245,6.0,13.0,77,0.00,,,0.01,,2013-09-02 18:42:00,
2013-09-02 14:52:00,75.0,69.0,-100.00,West,268,3.0,5.0,82,0.00,,,0.01,,2013-09-02 18:52:00,
2013-09-02 15:12:00,77.0,71.0,-100.00,North,349,1.0,6.0,82,0.00,,,0.01,,2013-09-02 19:12:00,
2013-09-02 15:22:00,81.0,72.0,-100.00,NNW,339,3.0,9.0,73,0.00,,,0.01,,2013-09-02 19:22:00,
2013-09-02 15:52:00,82.0,69.0,-100.00,NW,310,5.0,9.0,64,0.00,,,0.01,,2013-09-02 19:52:00,
2013-09-02 16:12:00,82.0,69.0,-100.00,North,349,5.0,13.0,65,0.00,,,0.01,,2013-09-02 20:12:00,
2013-09-02 16:22:00,82.0,69.0,-100.00,WNW,289,4.0,9.0,66,0.00,,,0.01,,2013-09-02 20:22:00,
2013-09-02 16:42:00,82.0,69.0,-100.00,WNW,299,5.0,9.0,65,0.00,,,0.01,,2013-09-02 20:42:00,
2013-09-02 16:52:00,82.0,68.0,-100.00,NW,317,6.0,11.0,62,0.00,,,0.01,,2013-09-02 20:52:00,
2013-09-02 17:12:00,82.0,68.0,-100.00,WNW,289,5.0,12.0,62,0.00,,,0.01,,2013-09-02 21:12:00,
2013-09-02 17:23:00,82.0,68.0,-100.00,NW,314,7.0,13.0,62,0.00,,,0.01,,2013-09-02 21:23:00,
2013-09-02 17:44:00,82.0,68.0,-100.00,WNW,301,6.0,10.0,63,0.00,,,0.01,,2013-09-02 21:44:00,
2013-09-02 17:55:00,82.0,68.0,-100.00,NNW,332,5.0,10.0,62,0.00,,,0.01,,2013-09-02 21:55:00,
2013-09-02 18:13:00,82.0,68.0,-100.00,NW,305,4.0,9.0,62,0.00,,,0.01,,2013-09-02 22:13:00,
2013-09-02 18:24:00,81.0,66.0,-100.00,NW,316,5.0,8.0,61,0.00,,,0.01,,2013-09-02 22:24:00,
2013-09-02 18:44:00,81.0,67.0,-100.00,NW,313,4.0,8.0,62,0.00,,,0.01,,2013-09-02 22:44:00,
2013-09-02 18:54:00,81.0,65.0,-100.00,WNW,293,5.0,10.0,59,0.00,,,0.01,,2013-09-02 22:54:00,
2013-09-02 19:12:00,81.0,65.0,-100.00,WNW,282,5.0,8.0,59,0.00,,,0.01,,2013-09-02 23:12:00,
2013-09-02 19:22:00,80.0,65.0,-100.00,NW,324,3.0,6.0,60,0.00,,,0.01,,2013-09-02 23:22:00,
2013-09-02 19:53:00,80.0,68.0,-100.00,WNW,291,0.0,1.0,67,0.00,,,0.01,,2013-09-02 23:53:00,
2013-09-02 20:12:00,79.0,67.0,-100.00,NE,56,2.0,6.0,66,0.00,,,0.01,,2013-09-03 00:12:00,
2013-09-02 20:22:00,78.0,66.0,-100.00,NNE,25,0.0,2.0,67,0.00,,,0.01,,2013-09-03 00:22:00,
2013-09-02 20:42:00,77.0,66.0,-100.00,NNE,21,2.0,5.0,68,0.00,,,0.01,,2013-09-03 00:42:00,
2013-09-02 20:52:00,75.0,65.0,-100.00,NNE,21,0.0,1.0,72,0.00,,,0.01,,2013-09-03 00:52:00,
2013-09-02 21:11:00,74.0,67.0,-100.00,NNE,21,0.0,0.0,78,0.00,,,0.01,,2013-09-03 01:11:00,
2013-09-02 21:22:00,73.0,67.0,-100.00,NNE,21,0.0,0.0,82,0.00,,,0.01,,2013-09-03 01:22:00,
2013-09-02 21:42:00,72.0,67.0,-100.00,NNE,21,0.0,0.0,83,0.00,,,0.01,,2013-09-03 01:42:00,
2013-09-02 21:52:00,71.0,65.0,-100.00,NNW,341,0.0,0.0,81,0.00,,,0.01,,2013-09-03 01:52:00,
2013-09-02 22:12:00,72.0,64.0,-100.00,North,354,0.0,0.0,76,0.00,,,0.01,,2013-09-03 02:12:00,
2013-09-02 22:21:00,72.0,65.0,-100.00,North,354,0.0,0.0,78,0.00,,,0.01,,2013-09-03 02:21:00,
2013-09-02 22:42:00,71.0,63.0,-100.00,NNE,23,0.0,0.0,76,0.00,,,0.01,,2013-09-03 02:42:00,
2013-09-02 22:52:00,71.0,64.0,-100.00,NNE,28,0.0,0.0,78,0.00,,,0.01,,2013-09-03 02:52:00,
2013-09-02 23:11:00,71.0,63.0,-100.00,NNE,17,0.0,0.0,75,0.00,,,0.01,,2013-09-03 03:11:00,
2013-09-02 23:23:00,70.0,62.0,-100.00,NNE,17,0.0,0.0,75,0.00,,,0.01,,2013-09-03 03:23:00,
2013-09-02 23:45:00,70.0,63.0,-100.00,NNE,17,0.0,0.0,79,0.00,,,0.01,,2013-09-03 03:45:00,
2013-09-02 23:55:00,68.0,62.0,-100.00,North,4,0.0,0.0,81,0.00,,,0.01,,2013-09-03 03:55:00,